Huntington, WV

5:41 PM EST on February 19, 2018 (GMT -0500)
Tri-State / Ferguson

Weather History for KHTS - May, 2014

Change the Weather History Date:

Wednesday, May 28, 2014

  Actual Average Record
Temperature  
Mean Temperature 74 °F 67 °F  
Max Temperature 85 °F 78 °F 95 °F (1941)
Min Temperature 62 °F 56 °F 37 °F (1994)
Degree Days  
Heating Degree Days 0 2  
Month to date heating degree days 106 108  
Since 1 July heating degree days 4817 4496  
Cooling Degree Days 9 4  
Month to date cooling degree days 82 68  
Year to date cooling degree days 96 100  
Growing Degree Days 23 (Base 50)    
Moisture  
Dew Point 64 °F    
Average Humidity 78    
Maximum Humidity 100    
Minimum Humidity 55    
Precipitation  
Precipitation T in 0.16 in 3.73 in (1990)
Month to date precipitation 2.55 4.21  
Year to date precipitation 19.53 17.59  
Snow  
Snow 0.00 in - - ()
Month to date snowfall 0.0  
Since 1 September snowfall 36.8  
Snow Depth 0.00 in    
Sea Level Pressure  
Sea Level Pressure 29.99 in    
Wind  
Wind Speed 4 mph (SSW)    
Max Wind Speed 15 mph    
Max Gust Speed 23 mph    
Visibility 9 miles    
Events Rain , Thunderstorm    
T = Trace of Precipitation, MM = Missing Value Source: NWS Daily Summary

Daily Weather History Graph

Daily Weather History Graph

Search for Another Location

Airport or City:

Trip Planner

Search our weather history database for the weather conditions in past years. The results will help you decide how hot, cold, wet, or windy it might be!

Date:

Astronomy

May. 28, 2014 Rise Set
Actual Time 6:10 AM EDT 8:45 PM EDT
Civil Twilight 5:39 AM EDT 9:16 PM EDT
Nautical Twilight 5:01 AM EDT 9:54 PM EDT
Astronomical Twilight 4:18 AM EDT 10:37 PM EDT
Moon 6:14 AM EDT (5/28) 8:43 PM EDT (5/28)
Length of Visible Light 15h 36m
Length of Day
14h 35m
Waning Crescent, 0% of the Moon is Illuminated
May 28
Waning Crescent
May 28
New
Jun 5
First Quarter
Jun 13
Full
Jun 19
Last Quarter

Hourly Weather History & Observations

Time (EDT) Temp. Heat Index Dew Point Humidity Pressure Visibility Wind Dir Wind Speed Gust Speed Precip Events Conditions
12:51 AM 64.9 °F - 63.0 °F 93% 29.98 in 10.0 mi South 4.6 mph - N/A   Clear
1:51 AM 64.9 °F - 63.0 °F 93% 29.98 in 10.0 mi Variable 3.5 mph - N/A   Clear
2:51 AM 64.0 °F - 62.1 °F 93% 29.96 in 10.0 mi SW 3.5 mph - N/A   Clear
3:51 AM 63.0 °F - 62.1 °F 97% 29.96 in 9.0 mi Calm Calm - N/A   Clear
4:51 AM 63.0 °F - 62.1 °F 97% 29.96 in 9.0 mi South 3.5 mph - N/A   Clear
5:51 AM 62.1 °F - 61.0 °F 96% 29.97 in 7.0 mi SSW 3.5 mph - N/A   Clear
6:51 AM 63.0 °F - 62.1 °F 97% 29.99 in 6.0 mi Calm Calm - N/A   Clear
7:51 AM 64.9 °F - 63.0 °F 93% 30.00 in 7.0 mi South 3.5 mph - N/A   Clear
8:51 AM 66.9 °F - 64.9 °F 93% 30.01 in 8.0 mi SSW 3.5 mph - N/A   Clear
9:51 AM 69.8 °F - 64.4 °F 83% 30.04 in 8.0 mi SSW 6.9 mph - N/A   Clear
10:51 AM 73.9 °F - 66.9 °F 79% 30.02 in 10.0 mi SW 5.8 mph - N/A   Clear
11:51 AM 77.0 °F - 66.9 °F 71% 30.02 in 10.0 mi SSW 4.6 mph - N/A   Clear
12:51 PM 80.1 °F 82.3 °F 66.9 °F 64% 30.01 in 10.0 mi SSW 5.8 mph - N/A   Clear
1:51 PM 82.9 °F 85.8 °F 68.0 °F 60% 29.99 in 10.0 mi Calm Calm - N/A   Clear
2:51 PM 82.9 °F 84.6 °F 64.9 °F 54% 29.97 in 10.0 mi SW 5.8 mph - N/A   Scattered Clouds
3:23 PM 75.9 °F - 62.1 °F 62% 29.99 in 10.0 mi SSW 5.8 mph - 0.00 in Thunderstorm Thunderstorm
3:51 PM 78.1 °F - 64.0 °F 62% 29.96 in 10.0 mi SSW 4.6 mph - 0.00 in Rain Light Rain
4:51 PM 73.9 °F - 66.0 °F 76% 29.98 in 10.0 mi SSW 6.9 mph - 0.00 in   Clear
5:51 PM 73.0 °F - 64.0 °F 73% 29.99 in 10.0 mi WSW 5.8 mph - 0.00 in Rain Light Rain
6:51 PM 72.0 °F - 66.9 °F 84% 29.98 in 10.0 mi SSW 6.9 mph - 0.00 in   Mostly Cloudy
7:51 PM 70.0 °F - 64.0 °F 81% 29.99 in 10.0 mi SSW 5.8 mph - N/A   Partly Cloudy
8:51 PM 69.1 °F - 64.0 °F 84% 29.99 in 10.0 mi Calm Calm - N/A   Scattered Clouds
9:51 PM 66.0 °F - 64.0 °F 93% 30.00 in 10.0 mi Calm Calm - N/A   Clear
10:51 PM 66.0 °F - 64.0 °F 93% 30.02 in 10.0 mi SE 3.5 mph - N/A   Clear
11:51 PM 64.9 °F - 64.0 °F 97% 30.00 in 8.0 mi ESE 3.5 mph - N/A   Clear